Regional Weather Roundup
Issued by NWS

Home | Current Version | Previous Version | Text Only | Print | Product List | Glossary Off
Versions: 1 2 3 4 5 6 7 8 9 10 11 12 13 14 15 16 17 18 19 20 21 22 23 24 25 26 27 28 29 30 31 32 33 34 35 36 37 38 39 40 41 42 43 44 45 46 47 48 49 50

000
ASUS45 KPSR 040910
RWRAZ

ARIZONA HOURLY REGIONAL WEATHER ROUNDUP
NATIONAL WEATHER SERVICE PHOENIX AZ
200 AM MST WED MAY 04 2016

NOTE: FAIR INDICATES FEW OR NO CLOUDS BELOW 12,000 FEET WITH NO
SIGNIFICANT WEATHER AND/OR OBSTRUCTIONS TO VISIBILITY.

AZZ001>003-036-041000-
NORTHWEST ARIZONA

CITY           SKY/WX    TMP DP  RH WIND       PRES   REMARKS
BULLHEAD CITY  CLEAR     75  37  25 NE5       29.88F
KINGMAN        CLEAR     63  34  33 SE15      30.01F
$$

AZZ004>008-015-016-018-041000-
NORTH CENTRAL ARIZONA

CITY           SKY/WX    TMP DP  RH WIND       PRES   REMARKS
GRAND CANYON   MOCLDY    50  29  44 E9        30.24F
WILLIAMS       CLEAR     41  30  65 S9        30.30S
PRESCOTT       CLEAR     52  35  52 S10       30.12F
FLAGSTAFF      PTCLDY    37  30  75 E7        30.25F WCI  32
PAYSON         CLEAR     61  27  27 CALM      30.15R
PAGE           PTCLDY    57  32  38 NW3       30.13F
$$

AZZ009>014-017-041000-
NORTHEAST ARIZONA

CITY           SKY/WX    TMP DP  RH WIND       PRES   REMARKS
WINSLOW        PTCLDY    47  42  83 CALM      30.17F
SAINT JOHNS    CLEAR     49  32  52 E8        30.21F
WINDOW ROCK    CLEAR     36  31  82 S3        30.30F
SHOW LOW       CLEAR     48  27  43 SE6       30.22F
$$

AZZ023-041000-
GREATER PHOENIX AREA

CITY           SKY/WX    TMP DP  RH WIND       PRES   REMARKS
PHOENIX        CLEAR     76  35  22 SE3       29.86S
BUCKEYE        CLEAR     64  27  24 N7        29.88F
LUKE AFB       CLEAR     69  43  39 VRB2      29.86S
DEER VALLEY    CLEAR     74  32  21 NE6       29.88S
SCOTTSDALE     CLEAR     72  40  31 CALM      29.89F
MESA-GATEWAY   CLEAR     66  34  30 SE5       29.89S
$$

AZZ027-028-041000-
SOUTHWEST MARICOPA COUNTY AND PINAL COUNTY

CITY           SKY/WX    TMP DP  RH WIND       PRES   REMARKS
CASA GRANDE    CLEAR    N/A N/A N/A MISG        N/A
GILA BEND      FAIR      70  27  20 S6        29.85S
$$

AZZ503-504-507>509-041000-
SOUTHEAST ARIZONA

CITY           SKY/WX    TMP DP  RH WIND       PRES   REMARKS
TUCSON         CLEAR     67  24  19 SE8       29.98F
DAVIS-MONTHAN  CLEAR     70  28  21 S6        29.96S
NOGALES        CLEAR     57  25  29 NE6       30.04F
SIERRA VISTA   CLEAR     65  25  21 SE12      30.11S
DOUGLAS        CLEAR     69  26  20 E13       30.07F
SAFFORD        CLEAR     66  25  21 SE6       30.05S
$$

AZZ020-021-025-026-031-041000-
SOUTHWEST ARIZONA

CITY           SKY/WX    TMP DP  RH WIND       PRES   REMARKS
YUMA           CLEAR     71  41  33 S5        29.82F
$$

CAZ031-033-041-043-047-048-061-041000-
SOUTHERN CALIFORNIA

CITY           SKY/WX    TMP DP  RH WIND       PRES   REMARKS
DOWNTOWN L.A.  CLEAR     57  53  86 CALM      29.96S
L.A. AIRPORT   MOCLDY    57  53  86 CALM      29.96F
SAN DIEGO      CLOUDY    62  54  74 CALM      29.97F
BURBANK        CLEAR     60  52  74 SE5       29.94F
ONTARIO        PTCLDY    58  53  84 W3        29.95S
RIVERSIDE      CLEAR     61  53  75 CALM      29.95F
PALM SPRINGS   CLEAR     76  39  26 CALM      29.87F
EL CENTRO NAS  CLEAR    N/A N/A N/A NW5       29.83S
IMPERIAL       CLEAR     69  44  40 CALM      29.81F
BLYTHE         CLEAR     71  31  22 CALM      29.84S
NEEDLES        CLEAR     74  38  27 SW3       29.87S
$$

NVZ020-UTZ003-041000-
SOUTHERN NEVADA-UTAH

CITY           SKY/WX    TMP DP  RH WIND       PRES   REMARKS
LAS VEGAS      PTCLDY    69  40  34 S6        29.92S
SALT LAKE CITY CLEAR     55  37  50 S10       30.14F
$$

NMZ009-TXZ055-041000-
NEW MEXICO-WEST TEXAS

CITY           SKY/WX    TMP DP  RH WIND       PRES   REMARKS
ALBUQUERQUE    CLEAR     58  28  32 NE10      30.27F
EL PASO        CLEAR     64  32  30 CALM      30.18R
$$


........................KEY........................
SKY/WX - SKY CONDITION/WEATHER
TMP    - TEMPERATURE IN FAHRENHEIT
DP     - DEW POINT IN FAHRENHEIT
RH     - RELATIVE HUMIDITY IN PERCENT
WIND   - DIRECTION AND SPEED IN MILES PER HOUR (MPH)
VRB    - VARIABLE WIND DIRECTION
PRES   - MEAN SEA LEVEL PRESSURE IN INCHES OF MERCURY
         F - FALLING PRESSURE   R - RISING PRESSURE
         S - STEADY PRESSURE
VSB    - VISIBILITY IN MILES
HX     - HEAT INDEX IN FAHRENHEIT
WCI    - WIND CHILL INDEX IN FAHRENHEIT
TC     - TEMPERATURE IN CELSIUS WHICH IS ALSO KNOWN AS
         TEMPERATURE IN CENTIGRADE
AFB    - AIR FORCE BASE
         LUKE AFB IS LUKE AIR FORCE BASE
         DAVIS-MONTHAN IS DAVIS-MONTHAN AIR FORCE BASE
NAS    - NAVAL AIR STATION
         EL CENTRO NAS IS EL CENTRO NAVAL AIR STATION
N/A    - NOT AVAILABLE




USA.gov is the U.S. government's official web portal to all federal, state and local government web resources and services.